Weather in Sharbakty

Kazakhstan     52°29′19″N   78°09′31″E
temp.,
°C
wind,
m/s
gust,
m/s
humid.,
%
clouds,
%
prec.,
mm/h
press.,
hPa
HPBL,
m
10 august, wed
wed1000:00+23ne81342100 0.0 1006569
03:00+20ne61159100 0.3 1007413
06:00+18nne3672100 1.3 1007242
09:00+19ene5776100 0.2 1008395
12:00+18nne248699 5.9 1009189
15:00+24ene2451100 0.0 10081097
18:00+22ene61060100 0.1 1009660
21:00+19nne2271100 0.0 100844
11 august, thu
thu1100:00+17nne348896 1.1 100877
03:00+17nne338499 1.0 100846
06:00+17nne348399 1.3 100896
09:00+19nne347394 1.7 1009358
12:00+25ne445399 2.1 10091068
15:00+28ne4541100 0.0 10081984
18:00+27nne574198 0.0 10081666
21:00+20w2377100 3.7 101066
12 august, fri
fri1200:00+19nnw3478100 5.5 100963
03:00+18n47749 0.0 1010116
06:00+17nne3884100 0.0 1011216
09:00+21nne456914 0.0 1012509
12:00+26nne56508 0.0 10121300
15:00+29nne453684 0.0 10102769
18:00+28nw353711 0.0 10101477
21:00+24wnw474878 0.0 1010119
13 august, sat
sat1300:00+22nw47502 0.0 1010156
03:00+20nnw22530 0.0 100917
06:00+19wnw34605 0.0 101046
09:00+22wnw6757100 0.1 1011523
12:00+22wnw5765100 0.4 10111152
15:00+25wnw89365 0.3 10102152
18:00+25wnw683522 0.3 10102339
21:00+20wnw484897 0.0 1010206
14 august, sun
sun1400:00+21sw4649100 0.0 1009169
03:00+20sw51048100 0.0 1008316
06:00+20w7115494 0.1 1007576
09:00+20wnw810635 0.3 10091117
12:00+21wnw810430 0.3 10091818
15:00+22nw910375 0.0 10102348
18:00+20nw9104110 0.0 10111639
21:00+17nw264291 0.0 1012259